Home   Weather   Finland   Pori   Past weeks
Flag for Finland

Past Weather in Pori, Finland — Yesterday and Last 2 Weeks

Currently: 70 °F. Passing clouds. (Weather station: Pori Airport, Finland). See more current weather

Past Weather in Pori — Graph

°F

Pori Temperature Yesterday

Maximum temperature yesterday: 84 °F (at 3:50 pm)
Minimum temperature yesterday: 54 °F (at 4:20 am)
Average temperature yesterday: 69 °F

High & Low Weather Summary for the Past Weeks

 TemperatureHumidityPressure
High84 °F (Jun 18, 3:50 pm)100% (Jun 7, 1:50 am)30.24 "Hg (Jun 7, 1:50 am)
Low46 °F (Jun 16, 3:50 am)34% (Jun 11, 1:50 pm)29.47 "Hg (Jun 12, 2:50 pm)
Average63 °F68%29.94 "Hg
* Reported Jun 4 8:20 pm — Jun 19 8:50 pm, Pori. Weather by CustomWeather, © 2021

Note: Actual official high and low records may vary slightly from our data, if they occured in-between our weather recording intervals... More about our weather records

Pori Weather History for the Previous 24 Hours

Scroll right to see more
 ConditionsComfort  
Time TempWeatherWind HumidityBarometerVisibility
8:50 pm
Sat, Jun 19
73 °FPassing clouds.7 mph65%29.92 "HgN/A
8:20 pm79 °FSunny.8 mph48%29.89 "Hg10 mi
7:50 pm81 °FSunny.10 mph48%29.89 "Hg10 mi
7:20 pm81 °FPassing clouds.8 mph51%29.92 "HgN/A
6:50 pm79 °FPassing clouds.7 mph58%29.92 "HgN/A
6:20 pm79 °FPassing clouds.8 mph54%29.92 "HgN/A
5:50 pm79 °FPassing clouds.9 mph58%29.95 "HgN/A
5:20 pm79 °FPassing clouds.7 mph61%29.95 "HgN/A
4:50 pm79 °FPassing clouds.8 mph65%29.95 "HgN/A
4:20 pm79 °FPassing clouds.3 mph65%29.95 "HgN/A
3:50 pm79 °FSunny.9 mph61%29.95 "Hg10 mi
3:20 pm77 °FPassing clouds.8 mph65%29.98 "HgN/A
2:50 pm73 °FSunny.8 mph83%29.98 "Hg10 mi
2:20 pm70 °FPassing clouds.7 mph88%29.98 "HgN/A
1:50 pm70 °FPassing clouds.7 mph88%30.01 "HgN/A
1:20 pm68 °FScattered showers. Cloudy.7 mph88%30.01 "HgN/A
12:50 pm66 °FScattered showers. Passing clouds.7 mph94%30.01 "HgN/A
12:20 pm64 °FSunny.7 mph94%30.01 "Hg10 mi
11:50 am63 °FSprinkles. Passing clouds.8 mph94%30.01 "HgN/A
10:50 am63 °FScattered showers. Cloudy.6 mph94%30.04 "HgN/A
10:20 am63 °FScattered showers. Cloudy.6 mph88%30.04 "HgN/A
9:50 am61 °FRain showers. Scattered clouds.7 mph88%30.04 "HgN/A
9:20 am61 °FStrong thunderstorms. Partly sunny.5 mph88%30.04 "Hg1 mi
8:50 am63 °FPassing clouds.8 mph73%30.04 "HgN/A
8:20 am64 °FSunny.9 mph73%30.04 "Hg10 mi
7:50 am63 °FPassing clouds.7 mph77%30.04 "HgN/A
7:20 am63 °FScattered showers. Cloudy.8 mph77%30.04 "HgN/A
6:50 am61 °FPassing clouds.8 mph88%30.04 "HgN/A
6:20 am61 °FPassing clouds.6 mph88%30.04 "HgN/A
5:50 am61 °FPassing clouds.5 mph83%30.01 "HgN/A
5:20 am59 °FSunny.6 mph88%30.01 "Hg10 mi
4:50 am59 °FSunny.2 mph88%30.01 "Hg10 mi
4:20 am59 °FSunny.6 mph88%30.01 "Hg10 mi
3:50 am59 °FSunny.2 mph88%30.01 "Hg10 mi
3:20 am59 °FPassing clouds.3 mph88%30.01 "HgN/A
2:50 am59 °FClear.5 mph88%30.01 "Hg10 mi
2:20 am59 °FPassing clouds.3 mph82%30.01 "HgN/A
1:50 am57 °FClear.3 mph88%29.98 "Hg10 mi
1:20 am59 °FPassing clouds.5 mph88%29.98 "HgN/A
12:50 am59 °FPassing clouds.5 mph88%29.98 "HgN/A
12:20 am61 °FPassing clouds.6 mph77%29.98 "HgN/A
11:50 pm
Fri, Jun 18
63 °FPassing clouds.7 mph77%29.98 "HgN/A
11:20 pm64 °FClear.12 mph73%29.95 "Hg10 mi
10:50 pm70 °FPassing clouds.14 mph64%29.95 "HgN/A
10:20 pm73 °FPassing clouds.12 mph57%29.92 "HgN/A
Weather by CustomWeather, © 2021

See weather overview